Regional Weather Roundup
Issued by NWS

Home | Current Version | Previous Version | Graphics & Text | Print | Product List | Glossary On
Versions: 1 2 3 4 5 6 7 8 9 10 11 12 13 14 15 16 17 18 19 20 21 22 23 24 25 26 27 28 29 30 31 32 33 34 35 36 37 38 39 40 41 42 43 44 45 46 47 48 49 50
997
ASUS45 KBOU 302207
RWRCO

WEATHER ROUNDUP FOR COLORADO
NATIONAL WEATHER SERVICE DENVER/BOULDER CO
400 PM MDT SAT APR 30 2016

NOTE: "FAIR" INDICATES FEW OR NO CLOUDS BELOW 12000 FEET WITH NO
SIGNIFICANT WEATHER AND/OR OBSTRUCTIONS TO VISIBILITY.

COZ001>005-013-030-031-302300-
...NORTHWEST COLORADO...

CITY           SKY/WX    TMP DP  RH WIND       PRES   REMARKS
CRAIG          CLOUDY    44  30  57 CALM      29.96F
HAYDEN         FAIR      45  19  36 NE14      29.96S
MEEKER         CLOUDY    44  33  65 SW7       29.93S
MOUNT WERNER   NOT AVBL
STEAMBOAT SPGS CLOUDY    39  22  49 NE20G29   29.97R
WALDEN         CLOUDY    32  19  59 N12G18    30.04R WCI  23
$$

COZ006>008-011-302300-
...WEST CENTRAL VALLEYS...

CITY           SKY/WX    TMP DP  RH WIND       PRES   REMARKS
GRAND JUNCTION CLOUDY    53  31  42 NE7       29.88F
MONTROSE       CLOUDY    53  28  38 W9        29.88F
EAGLE          CLOUDY    41  36  81 SW9       29.95S
RIFLE          CLOUDY    52  30  43 N10       29.90S
DELTA          NOT AVBL
NUCLA          NOT AVBL
$$

COZ017>023-064>068-302300-
...SOUTHWEST COLORADO...

CITY           SKY/WX    TMP DP  RH WIND       PRES   REMARKS
DURANGO        CLOUDY    53  27  36 N8        29.82S
CORTEZ         PTSUNNY   58  34  40 S17       29.84S
PAGOSA SPRINGS CLOUDY    46  31  56 NE8       29.88S
TELLURIDE      CLOUDY    41  28  58 W9        29.93S
WOLF CREEK PAS CLOUDY    28  25  86 SW16G25   29.99S WCI  17
$$

COZ009-010-012-014-032>034-037-058>063-302300-
...CENTRAL COLORADO...

CITY           SKY/WX    TMP DP  RH WIND       PRES   REMARKS
ASPEN          CLOUDY    42  28  57 NW10      29.90S
BUENA VISTA    PTSUNNY   39  29  65 NE13      29.92R
COPPER MTN     NOT AVBL
BERTHOUD PASS  SNOW      14   5  67 E17G25    29.98S VSB 1/4 WCI  -3
COTTONWOOD PAS LGT SNOW  34  32  93 CALM      29.94S
GUNNISON       PTSUNNY   46  25  42 N10G16    29.88F
KREMMLING      CLOUDY    41  23  48 NW13      29.97R
LEADVILLE      LGT SNOW  30  24  78 N12       29.92S WCI  20
MONARCH PASS     N/A     25  23  93 W7G22     30.06S WCI  17
SALIDA         CLOUDY    35  33  94 SE13      29.99R VSB 3/4 WCI  26
SUNLIGHT       SNOW      30  28  93 CALM      30.01R VSB 1/4
WILKERSON PASS FOG       21  19  93 NE13      29.99R VSB 3/4 WCI   9
$$

COZ069>075-302300-
...SAN LUIS VALLEY/SANGRE DE CRISTO MOUNTAINS...

CITY           SKY/WX    TMP DP  RH WIND       PRES   REMARKS
ALAMOSA        CLOUDY    44  36  73 N9        29.86R
LA VETA PASS   SNOW      25  21  86 MISG      29.95R VSB<1/4
SAGUACHE       FAIR      48  30  49 N14G22    29.86S
$$

COZ035-036-038>040-302300-
...NORTHERN COLORADO FRONT RANGE...

CITY           SKY/WX    TMP DP  RH WIND       PRES   REMARKS
DENVER INTL AP LGT SNOW  34  30  85 N23       30.04R VSB 3/4 WCI  22
DMNS CITY PARK   N/A     37  34  86 N13G20    30.05R
AURORA         LGT SNOW  34  33  99 N20       30.04R FOG     WCI  22
FRONT RANGE AP LGT SNOW  34  32  93 N21       30.03R WCI  22
ERIE MUNI ARPT CLOUDY    39  35  88 N20       30.06R
BOULDER MUN AP CLOUDY    39  32  75 N18       30.06S
CENTENNIAL     LGT SNOW  35  32  88 N22       30.03R VSB 1   WCI  23
BROOMFIELD     LGT SNOW  37  34  87 N16G24    30.05R
FORT COLLINS   CLOUDY    36  34  93 N16G22    30.08R
LONGMONT       CLOUDY    40  35  80 N21       30.09R HAZE
$$

COZ041-046-047-076>085-087-088-302300-
...PIKES PEAK/PALMER DIVIDE AND SOUTHERN FOOTHILLS...

CITY           SKY/WX    TMP DP  RH WIND       PRES   REMARKS
COLO. SPRINGS  CLOUDY    36  26  67 NW20G31   29.98R
A. F. ACADEMY  LGT RAIN  34  27  75 N22G33    29.98R WCI  22
SCHRIEVER AFB  NOT AVBL
ELLICOTT       NOT AVBL
FALCON         PTSUNNY   33  26  76 N25G35    29.96R WCI  20
FORT CARSON    CLOUDY    41  28  59 N25G33    29.95R
LIMON          LGT SNOW  33  30  88 NW31G38   29.96R FOG     WCI  19
MONUMENT HILL  CLOUDY    30  27  86 N21G26    30.01R FOG     WCI  17
TRINIDAD       CLOUDY    39  30  70 N14       29.97R
$$

COZ042>045-048>051-090-091-302300-
...NORTHEAST COLORADO...

CITY           SKY/WX    TMP DP  RH WIND       PRES   REMARKS
GREELEY ARPT   CLOUDY    37  34  87 N21G26    30.06R
AKRON          LGT SNOW  32  30  92 N25       29.97R VSB 3/4 WCI  19
BURLINGTON     LGT SNOW  36  33  89 NW21G26   29.91R FOG
WRAY           NOT AVBL
STERLING       MIX PCPN  34  34 100 N15       29.98R WCI  24
HOLYOKE        NOT AVBL
FORT MORGAN    LGT RAIN  34  32  94 N13       30.02R WCI  25
$$

COZ086-089-092>099-302300-
...SOUTHEAST COLORADO...

CITY           SKY/WX    TMP DP  RH WIND       PRES   REMARKS
PUEBLO         CLOUDY    46  28  49 N22       29.97R
LA JUNTA       CLOUDY    47  33  58 N24G31    29.97S
LAMAR          CLOUDY    47  34  60 N18G29    29.91R
SPRINGFIELD      N/A     47  31  53 N29G38    29.91R
$$




USA.gov is the U.S. government's official web portal to all federal, state and local government web resources and services.